Time,TemperatureF,DewpointF,PressureIn,WindDirection,WindDirectionDegrees,WindSpeedMPH,WindSpeedGustMPH,Humidity,HourlyPrecipIn,Conditions,Clouds,dailyrainin,SoftwareType,DateUTC
2013-01-01 00:00:00,36.3,27.8,29.98,West,260,3.0,3.0,71,0.00,,,0.09,Wunderground v.1.15,2013-01-01 05:00:00,
2013-01-01 00:05:00,36.3,28.1,29.98,WSW,244,4.0,6.0,72,0.00,,,0.00,Wunderground v.1.15,2013-01-01 05:05:00,
2013-01-01 00:15:00,36.3,27.8,29.98,WSW,241,4.0,5.0,71,0.00,,,0.00,Wunderground v.1.15,2013-01-01 05:15:00,
2013-01-01 00:25:00,36.6,27.7,29.98,SSW,206,7.0,7.0,70,0.00,,,0.00,Wunderground v.1.15,2013-01-01 05:25:00,
2013-01-01 00:35:00,36.6,27.7,29.98,WSW,239,4.0,6.0,70,0.00,,,0.00,Wunderground v.1.15,2013-01-01 05:35:00,
2013-01-01 00:45:00,36.6,27.7,29.98,SW,215,3.0,5.0,70,0.00,,,0.00,Wunderground v.1.15,2013-01-01 05:45:00,
2013-01-01 00:55:00,36.4,27.5,29.98,South,175,2.0,6.0,70,0.00,,,0.00,Wunderground v.1.15,2013-01-01 05:55:00,
2013-01-01 01:05:00,37.0,27.8,29.97,SSW,202,7.0,8.0,69,0.00,,,0.00,Wunderground v.1.15,2013-01-01 06:05:00,
2013-01-01 01:15:00,37.1,27.9,29.97,SW,233,5.0,6.0,69,0.00,,,0.00,Wunderground v.1.15,2013-01-01 06:15:00,
2013-01-01 01:25:00,37.1,28.2,29.97,SW,220,8.0,14.0,70,0.00,,,0.00,Wunderground v.1.15,2013-01-01 06:25:00,
2013-01-01 01:35:00,36.9,28.0,29.98,NNW,333,6.0,10.0,70,0.00,,,0.00,Wunderground v.1.15,2013-01-01 06:35:00,
2013-01-01 01:40:00,36.9,28.4,29.96,West,268,7.0,11.0,71,0.00,,,0.00,Wunderground v.1.15,2013-01-01 06:40:00,
2013-01-01 01:50:00,36.8,28.3,29.96,WSW,251,9.0,9.0,71,0.00,,,0.00,Wunderground v.1.15,2013-01-01 06:50:00,
2013-01-01 02:00:00,36.9,28.0,29.96,WNW,292,10.0,12.0,70,0.00,,,0.00,Wunderground v.1.15,2013-01-01 07:00:00,
2013-01-01 02:05:00,36.8,27.6,29.95,SW,219,10.0,12.0,69,0.00,,,0.00,Wunderground v.1.15,2013-01-01 07:05:00,
2013-01-01 02:15:00,37.0,27.8,29.96,SW,216,11.0,14.0,69,0.00,,,0.00,Wunderground v.1.15,2013-01-01 07:15:00,
2013-01-01 02:20:00,37.0,28.1,29.95,West,261,11.0,18.0,70,0.00,,,0.00,Wunderground v.1.15,2013-01-01 07:20:00,
2013-01-01 02:30:00,36.8,28.3,29.95,SW,230,11.0,22.0,71,0.00,,,0.00,Wunderground v.1.15,2013-01-01 07:30:00,
2013-01-01 02:35:00,36.6,28.1,29.95,SSW,206,11.0,22.0,71,0.00,,,0.00,Wunderground v.1.15,2013-01-01 07:35:00,
2013-01-01 02:45:00,36.3,28.1,29.96,WSW,242,13.0,19.0,72,0.00,,,0.00,Wunderground v.1.15,2013-01-01 07:45:00,
2013-01-01 02:55:00,36.2,27.7,29.96,SW,224,13.0,17.0,71,0.00,,,0.00,Wunderground v.1.15,2013-01-01 07:55:00,
2013-01-01 03:00:00,36.2,27.7,29.96,WSW,249,12.0,12.0,71,0.00,,,0.00,Wunderground v.1.15,2013-01-01 08:00:00,
2013-01-01 03:05:00,36.1,27.6,29.95,SW,228,13.0,13.0,71,0.00,,,0.00,Wunderground v.1.15,2013-01-01 08:05:00,
2013-01-01 03:15:00,36.0,27.5,29.96,SW,218,11.0,14.0,71,0.00,,,0.00,Wunderground v.1.15,2013-01-01 08:15:00,
2013-01-01 03:25:00,35.8,27.7,29.95,SW,214,12.0,12.0,72,0.00,,,0.00,Wunderground v.1.15,2013-01-01 08:25:00,
2013-01-01 03:30:00,35.6,27.8,29.95,SW,218,12.0,13.0,73,0.00,,,0.00,Wunderground v.1.15,2013-01-01 08:30:00,
2013-01-01 03:40:00,35.2,28.1,29.96,WNW,298,12.0,15.0,75,0.00,,,0.00,Wunderground v.1.15,2013-01-01 08:40:00,
2013-01-01 03:45:00,35.1,28.0,29.95,WSW,240,13.0,15.0,75,0.00,,,0.00,Wunderground v.1.15,2013-01-01 08:45:00,
2013-01-01 03:55:00,35.1,28.0,29.95,SW,222,12.0,13.0,75,0.00,,,0.00,Wunderground v.1.15,2013-01-01 08:55:00,
2013-01-01 04:00:00,35.1,28.3,29.95,WSW,249,13.0,21.0,76,0.00,,,0.00,Wunderground v.1.15,2013-01-01 09:00:00,
2013-01-01 04:05:00,35.0,28.2,29.95,SW,231,12.0,21.0,76,0.00,,,0.00,Wunderground v.1.15,2013-01-01 09:05:00,
2013-01-01 04:15:00,35.2,28.1,29.95,WSW,237,11.0,14.0,75,0.00,,,0.00,Wunderground v.1.15,2013-01-01 09:15:00,
2013-01-01 04:25:00,35.5,28.0,29.95,WSW,243,12.0,18.0,74,0.00,,,0.00,Wunderground v.1.15,2013-01-01 09:25:00,
2013-01-01 04:30:00,35.5,28.4,29.94,West,276,11.0,11.0,75,0.00,,,0.00,Wunderground v.1.15,2013-01-01 09:30:00,
2013-01-01 04:40:00,35.6,28.5,29.96,WSW,249,11.0,12.0,75,0.00,,,0.00,Wunderground v.1.15,2013-01-01 09:40:00,
2013-01-01 04:50:00,35.9,28.1,29.96,WSW,243,10.0,10.0,73,0.00,,,0.00,Wunderground v.1.15,2013-01-01 09:50:00,
2013-01-01 04:55:00,35.9,28.4,29.96,WSW,239,10.0,10.0,74,0.00,,,0.00,Wunderground v.1.15,2013-01-01 09:55:00,
2013-01-01 05:05:00,35.8,28.3,29.95,WNW,297,9.0,10.0,74,0.00,,,0.00,Wunderground v.1.15,2013-01-01 10:05:00,
2013-01-01 05:15:00,35.6,28.1,29.94,SW,234,8.0,11.0,74,0.00,,,0.00,Wunderground v.1.15,2013-01-01 10:15:00,
2013-01-01 05:25:00,35.5,28.4,29.95,SW,215,8.0,8.0,75,0.00,,,0.00,Wunderground v.1.15,2013-01-01 10:25:00,
2013-01-01 05:35:00,35.3,28.2,29.94,WSW,238,8.0,14.0,75,0.00,,,0.00,Wunderground v.1.15,2013-01-01 10:35:00,
2013-01-01 05:45:00,35.3,28.2,29.94,SW,230,9.0,12.0,75,0.00,,,0.00,Wunderground v.1.15,2013-01-01 10:45:00,
2013-01-01 05:55:00,35.3,28.2,29.94,SW,223,8.0,10.0,75,0.00,,,0.00,Wunderground v.1.15,2013-01-01 10:55:00,
2013-01-01 06:05:00,35.3,28.2,29.94,WNW,301,8.0,8.0,75,0.00,,,0.00,Wunderground v.1.15,2013-01-01 11:05:00,
2013-01-01 06:15:00,35.3,28.5,29.94,SW,222,6.0,8.0,76,0.00,,,0.00,Wunderground v.1.15,2013-01-01 11:15:00,
2013-01-01 06:25:00,35.4,28.6,29.95,WSW,242,7.0,12.0,76,0.00,,,0.00,Wunderground v.1.15,2013-01-01 11:25:00,
2013-01-01 06:35:00,35.5,28.4,29.95,WSW,238,7.0,7.0,75,0.00,,,0.00,Wunderground v.1.15,2013-01-01 11:35:00,
2013-01-01 06:45:00,35.6,28.5,29.95,SW,222,6.0,7.0,75,0.00,,,0.00,Wunderground v.1.15,2013-01-01 11:45:00,
2013-01-01 06:55:00,35.5,28.4,29.95,West,270,5.0,10.0,75,0.00,,,0.00,Wunderground v.1.15,2013-01-01 11:55:00,
2013-01-01 07:00:00,35.5,28.7,29.94,SW,229,5.0,6.0,76,0.00,,,0.00,Wunderground v.1.15,2013-01-01 12:00:00,
2013-01-01 07:05:00,35.5,28.7,29.94,WSW,249,5.0,10.0,76,0.00,,,0.00,Wunderground v.1.15,2013-01-01 12:05:00,
2013-01-01 07:15:00,35.6,28.8,29.94,WSW,253,5.0,5.0,76,0.00,,,0.00,Wunderground v.1.15,2013-01-01 12:15:00,
2013-01-01 07:25:00,35.6,28.8,29.95,WSW,252,6.0,8.0,76,0.00,,,0.00,Wunderground v.1.15,2013-01-01 12:25:00,
2013-01-01 07:30:00,35.7,28.9,29.95,SW,226,7.0,7.0,76,0.00,,,0.00,Wunderground v.1.15,2013-01-01 12:30:00,
2013-01-01 07:40:00,35.7,28.9,29.95,SW,221,6.0,6.0,76,0.00,,,0.00,Wunderground v.1.15,2013-01-01 12:40:00,
2013-01-01 07:50:00,35.5,29.0,29.95,West,264,4.0,4.0,77,0.00,,,0.00,Wunderground v.1.15,2013-01-01 12:50:00,
2013-01-01 08:00:00,35.6,29.1,29.95,SSW,210,5.0,5.0,77,0.00,,,0.00,Wunderground v.1.15,2013-01-01 13:00:00,
2013-01-01 08:05:00,35.9,29.1,29.94,West,270,6.0,6.0,76,0.00,,,0.00,Wunderground v.1.15,2013-01-01 13:05:00,
2013-01-01 08:15:00,35.9,29.4,29.94,SW,232,4.0,7.0,77,0.00,,,0.00,Wunderground v.1.15,2013-01-01 13:15:00,
2013-01-01 08:20:00,36.0,29.2,29.94,WSW,244,6.0,6.0,76,0.00,,,0.00,Wunderground v.1.15,2013-01-01 13:20:00,
2013-01-01 08:30:00,36.1,29.3,29.95,NW,318,5.0,6.0,76,0.00,,,0.00,Wunderground v.1.15,2013-01-01 13:30:00,
2013-01-01 08:40:00,36.3,29.5,29.96,SSW,208,6.0,6.0,76,0.00,,,0.00,Wunderground v.1.15,2013-01-01 13:40:00,
2013-01-01 08:50:00,36.4,29.6,29.96,WNW,284,4.0,12.0,76,0.00,,,0.00,Wunderground v.1.15,2013-01-01 13:50:00,
2013-01-01 09:00:00,36.6,29.4,29.96,SW,214,5.0,5.0,75,0.00,,,0.00,Wunderground v.1.15,2013-01-01 14:00:00,
2013-01-01 09:05:00,36.6,29.4,29.96,SW,217,5.0,14.0,75,0.00,,,0.00,Wunderground v.1.15,2013-01-01 14:05:00,
2013-01-01 09:15:00,36.9,29.7,29.95,WSW,253,7.0,16.0,75,0.00,,,0.01,Wunderground v.1.15,2013-01-01 14:15:00,
2013-01-01 09:25:00,37.2,29.7,29.96,WSW,247,7.0,10.0,74,0.00,,,0.01,Wunderground v.1.15,2013-01-01 14:25:00,
2013-01-01 09:35:00,37.4,29.5,29.95,SW,233,9.0,9.0,73,0.00,,,0.01,Wunderground v.1.15,2013-01-01 14:35:00,
2013-01-01 09:40:00,37.5,29.6,29.95,SSW,197,7.0,7.0,73,0.00,,,0.01,Wunderground v.1.15,2013-01-01 14:40:00,
2013-01-01 09:50:00,37.7,29.8,29.95,SW,225,8.0,10.0,73,0.00,,,0.01,Wunderground v.1.15,2013-01-01 14:50:00,
2013-01-01 10:00:00,37.7,29.8,29.94,WSW,239,8.0,8.0,73,0.00,,,0.01,Wunderground v.1.15,2013-01-01 15:00:00,
2013-01-01 10:05:00,37.7,29.5,29.94,SW,218,8.0,13.0,72,0.00,,,0.01,Wunderground v.1.15,2013-01-01 15:05:00,
2013-01-01 10:15:00,37.5,29.3,29.95,SW,220,9.0,12.0,72,0.00,,,0.01,Wunderground v.1.15,2013-01-01 15:15:00,
2013-01-01 10:25:00,37.6,29.4,29.96,WSW,256,8.0,14.0,72,0.00,,,0.01,Wunderground v.1.15,2013-01-01 15:25:00,
2013-01-01 10:30:00,37.7,29.5,29.96,WSW,244,9.0,11.0,72,0.00,,,0.01,Wunderground v.1.15,2013-01-01 15:30:00,
2013-01-01 10:40:00,37.8,29.2,29.95,West,269,10.0,16.0,71,0.00,,,0.01,Wunderground v.1.15,2013-01-01 15:40:00,
2013-01-01 10:50:00,37.8,29.6,29.95,WSW,242,7.0,12.0,72,0.00,,,0.02,Wunderground v.1.15,2013-01-01 15:50:00,
2013-01-01 10:55:00,37.7,29.5,29.96,SW,214,7.0,12.0,72,0.00,,,0.02,Wunderground v.1.15,2013-01-01 15:55:00,
2013-01-01 11:05:00,38.1,29.9,29.96,SSW,192,6.0,9.0,72,0.00,,,0.02,Wunderground v.1.15,2013-01-01 16:05:00,
2013-01-01 11:15:00,38.1,29.5,29.95,SW,229,8.0,9.0,71,0.00,,,0.02,Wunderground v.1.15,2013-01-01 16:15:00,
2013-01-01 11:25:00,38.2,29.6,29.94,SW,224,7.0,8.0,71,0.00,,,0.02,Wunderground v.1.15,2013-01-01 16:25:00,
2013-01-01 11:30:00,38.2,30.0,29.94,SW,221,5.0,5.0,72,0.00,,,0.03,Wunderground v.1.15,2013-01-01 16:30:00,
2013-01-01 11:40:00,38.3,30.1,29.93,SSW,205,4.0,4.0,72,0.00,,,0.03,Wunderground v.1.15,2013-01-01 16:40:00,
2013-01-01 11:45:00,38.3,29.4,29.93,SSW,211,5.0,7.0,70,0.00,,,0.03,Wunderground v.1.15,2013-01-01 16:45:00,
2013-01-01 11:55:00,38.5,29.6,29.93,East,97,8.0,15.0,70,0.00,,,0.04,Wunderground v.1.15,2013-01-01 16:55:00,
2013-01-01 12:05:00,40.1,29.6,29.92,SSW,201,7.0,9.0,66,0.00,,,0.04,Wunderground v.1.15,2013-01-01 17:05:00,
2013-01-01 12:15:00,39.3,29.3,29.92,WNW,298,6.0,7.0,67,0.00,,,0.05,Wunderground v.1.15,2013-01-01 17:15:00,
2013-01-01 12:25:00,38.6,29.7,29.91,SW,228,5.0,9.0,70,0.00,,,0.05,Wunderground v.1.15,2013-01-01 17:25:00,
2013-01-01 12:35:00,38.9,29.9,29.91,SSW,213,5.0,7.0,70,0.00,,,0.05,Wunderground v.1.15,2013-01-01 17:35:00,
2013-01-01 12:45:00,39.6,30.3,29.90,SW,222,6.0,6.0,69,0.00,,,0.06,Wunderground v.1.15,2013-01-01 17:45:00,
2013-01-01 12:50:00,39.8,30.1,29.90,SW,224,5.0,5.0,68,0.00,,,0.06,Wunderground v.1.15,2013-01-01 17:50:00,
2013-01-01 13:00:00,39.7,30.0,29.90,SW,221,6.0,9.0,68,0.00,,,0.06,Wunderground v.1.15,2013-01-01 18:00:00,
2013-01-01 13:05:00,39.6,29.9,29.90,SW,231,7.0,9.0,68,0.00,,,0.07,Wunderground v.1.15,2013-01-01 18:05:00,
2013-01-01 13:15:00,39.4,29.7,29.90,SW,231,6.0,11.0,68,0.00,,,0.07,Wunderground v.1.15,2013-01-01 18:15:00,
2013-01-01 13:20:00,39.2,29.9,29.90,SSW,210,6.0,6.0,69,0.00,,,0.07,Wunderground v.1.15,2013-01-01 18:20:00,
2013-01-01 13:30:00,38.6,29.7,29.91,SSW,201,6.0,6.0,70,0.00,,,0.08,Wunderground v.1.15,2013-01-01 18:30:00,
2013-01-01 13:40:00,38.0,29.8,29.91,SSW,208,6.0,6.0,72,0.00,,,0.08,Wunderground v.1.15,2013-01-01 18:40:00,
2013-01-01 13:50:00,37.7,29.5,29.91,West,272,6.0,6.0,72,0.00,,,0.08,Wunderground v.1.15,2013-01-01 18:50:00,
2013-01-01 14:00:00,37.4,29.9,29.91,ENE,77,5.0,5.0,74,0.00,,,0.09,Wunderground v.1.15,2013-01-01 19:00:00,
2013-01-01 14:05:00,37.2,29.7,29.90,SW,234,6.0,10.0,74,0.00,,,0.09,Wunderground v.1.15,2013-01-01 19:05:00,
2013-01-01 14:15:00,37.1,30.2,29.90,WSW,237,6.0,8.0,76,0.00,,,0.09,Wunderground v.1.15,2013-01-01 19:15:00,
2013-01-01 14:25:00,36.9,29.7,29.91,SW,214,6.0,6.0,75,0.00,,,0.09,Wunderground v.1.15,2013-01-01 19:25:00,
2013-01-01 14:35:00,36.6,29.7,29.91,SW,215,6.0,8.0,76,0.00,,,0.09,Wunderground v.1.15,2013-01-01 19:35:00,
2013-01-01 14:45:00,36.4,29.6,29.91,North,4,5.0,6.0,76,0.00,,,0.09,Wunderground v.1.15,2013-01-01 19:45:00,
2013-01-01 14:55:00,36.4,29.9,29.91,WSW,256,4.0,9.0,77,0.00,,,0.09,Wunderground v.1.15,2013-01-01 19:55:00,
2013-01-01 15:05:00,36.3,29.8,29.90,SSW,197,8.0,11.0,77,0.00,,,0.10,Wunderground v.1.15,2013-01-01 20:05:00,
2013-01-01 15:15:00,36.1,29.9,29.91,WSW,239,5.0,7.0,78,0.00,,,0.10,Wunderground v.1.15,2013-01-01 20:15:00,
2013-01-01 15:25:00,35.9,30.0,29.92,South,186,4.0,4.0,79,0.00,,,0.10,Wunderground v.1.15,2013-01-01 20:25:00,
2013-01-01 15:35:00,35.8,29.9,29.92,SW,228,4.0,5.0,79,0.00,,,0.10,Wunderground v.1.15,2013-01-01 20:35:00,
2013-01-01 15:45:00,35.7,29.8,29.93,SW,224,5.0,9.0,79,0.00,,,0.10,Wunderground v.1.15,2013-01-01 20:45:00,
2013-01-01 15:50:00,35.7,29.8,29.93,West,281,4.0,4.0,79,0.00,,,0.10,Wunderground v.1.15,2013-01-01 20:50:00,
2013-01-01 16:00:00,35.6,30.0,29.94,NNW,335,5.0,5.0,80,0.00,,,0.10,Wunderground v.1.15,2013-01-01 21:00:00,
2013-01-01 16:05:00,35.5,30.2,29.94,SSE,163,3.0,5.0,81,0.00,,,0.10,Wunderground v.1.15,2013-01-01 21:05:00,
2013-01-01 16:15:00,35.3,29.7,29.93,NNE,23,3.0,5.0,80,0.00,,,0.10,Wunderground v.1.15,2013-01-01 21:15:00,
2013-01-01 16:20:00,35.3,30.1,29.93,SW,231,2.0,2.0,81,0.00,,,0.10,Wunderground v.1.15,2013-01-01 21:20:00,
2013-01-01 16:30:00,35.2,29.3,29.94,WNW,285,4.0,4.0,79,0.00,,,0.10,Wunderground v.1.15,2013-01-01 21:30:00,
2013-01-01 16:40:00,35.2,29.3,29.94,SSW,204,4.0,10.0,79,0.00,,,0.10,Wunderground v.1.15,2013-01-01 21:40:00,
2013-01-01 16:50:00,35.2,29.6,29.94,SSW,211,6.0,6.0,80,0.00,,,0.10,Wunderground v.1.15,2013-01-01 21:50:00,
2013-01-01 16:55:00,35.1,29.6,29.94,SW,236,5.0,8.0,80,0.00,,,0.10,Wunderground v.1.15,2013-01-01 21:55:00,
2013-01-01 17:05:00,35.1,29.6,29.95,WNW,299,5.0,7.0,80,0.00,,,0.10,Wunderground v.1.15,2013-01-01 22:05:00,
2013-01-01 17:15:00,35.1,29.2,29.95,WNW,293,3.0,4.0,79,0.00,,,0.10,Wunderground v.1.15,2013-01-01 22:15:00,
2013-01-01 17:25:00,35.0,29.5,29.95,East,100,2.0,3.0,80,0.00,,,0.10,Wunderground v.1.15,2013-01-01 22:25:00,
2013-01-01 17:35:00,34.9,29.4,29.96,WSW,239,3.0,3.0,80,0.00,,,0.10,Wunderground v.1.15,2013-01-01 22:35:00,
2013-01-01 17:40:00,34.9,29.4,29.96,SSW,212,4.0,5.0,80,0.00,,,0.10,Wunderground v.1.15,2013-01-01 22:40:00,
2013-01-01 17:50:00,34.8,29.3,29.96,SSW,207,5.0,5.0,80,0.00,,,0.10,Wunderground v.1.15,2013-01-01 22:50:00,
2013-01-01 18:00:00,34.6,29.4,29.95,SSW,201,2.0,3.0,81,0.00,,,0.10,Wunderground v.1.15,2013-01-01 23:00:00,
2013-01-01 18:05:00,34.5,29.3,29.96,West,261,1.0,3.0,81,0.00,,,0.10,Wunderground v.1.15,2013-01-01 23:05:00,
2013-01-01 18:15:00,34.4,29.5,29.97,ESE,122,0.0,2.0,82,0.00,,,0.10,Wunderground v.1.15,2013-01-01 23:15:00,
2013-01-01 18:25:00,34.3,29.7,29.96,SE,127,2.0,7.0,83,0.00,,,0.10,Wunderground v.1.15,2013-01-01 23:25:00,
2013-01-01 18:30:00,34.3,29.4,29.97,WNW,303,2.0,4.0,82,0.00,,,0.10,Wunderground v.1.15,2013-01-01 23:30:00,
2013-01-01 18:35:00,34.3,29.4,29.98,South,183,2.0,4.0,82,0.00,,,0.10,Wunderground v.1.15,2013-01-01 23:35:00,
2013-01-01 18:45:00,34.4,29.8,29.98,SSE,168,2.0,2.0,83,0.00,,,0.10,Wunderground v.1.15,2013-01-01 23:45:00,
2013-01-01 18:50:00,34.3,29.7,29.97,South,191,1.0,1.0,83,0.00,,,0.10,Wunderground v.1.15,2013-01-01 23:50:00,
2013-01-01 18:55:00,34.3,29.4,29.98,WSW,237,2.0,4.0,82,0.00,,,0.10,Wunderground v.1.15,2013-01-01 23:55:00,
2013-01-01 19:05:00,34.3,29.4,29.97,SSE,160,1.0,3.0,82,0.00,,,0.10,Wunderground v.1.15,2013-01-02 00:05:00,
2013-01-01 19:15:00,34.3,29.4,29.97,East,89,2.0,6.0,82,0.00,,,0.10,Wunderground v.1.15,2013-01-02 00:15:00,
2013-01-01 19:25:00,34.2,29.6,29.98,ENE,61,1.0,3.0,83,0.00,,,0.10,Wunderground v.1.15,2013-01-02 00:25:00,
2013-01-01 19:35:00,34.1,29.5,29.97,NE,43,0.0,1.0,83,0.00,,,0.10,Wunderground v.1.15,2013-01-02 00:35:00,
2013-01-01 19:45:00,34.0,29.1,29.98,NNW,334,2.0,2.0,82,0.00,,,0.10,Wunderground v.1.15,2013-01-02 00:45:00,
2013-01-01 19:50:00,34.1,29.2,29.98,NNW,337,1.0,1.0,82,0.00,,,0.10,Wunderground v.1.15,2013-01-02 00:50:00,
2013-01-01 20:00:00,34.0,29.1,29.97,SE,131,1.0,1.0,82,0.00,,,0.10,Wunderground v.1.15,2013-01-02 01:00:00,
2013-01-01 20:05:00,34.0,29.1,29.97,West,271,1.0,4.0,82,0.00,,,0.10,Wunderground v.1.15,2013-01-02 01:05:00,
2013-01-01 20:15:00,34.1,29.5,29.98,West,266,1.0,2.0,83,0.00,,,0.10,Wunderground v.1.15,2013-01-02 01:15:00,
2013-01-01 20:20:00,34.0,29.4,29.98,NE,43,0.0,0.0,83,0.00,,,0.10,Wunderground v.1.15,2013-01-02 01:20:00,
2013-01-01 20:30:00,33.8,29.2,29.98,SW,229,1.0,3.0,83,0.00,,,0.10,Wunderground v.1.15,2013-01-02 01:30:00,
2013-01-01 20:40:00,33.7,28.8,29.97,SSW,212,5.0,5.0,82,0.00,,,0.10,Wunderground v.1.15,2013-01-02 01:40:00,
2013-01-01 20:50:00,33.7,28.8,29.99,WSW,239,5.0,5.0,82,0.00,,,0.10,Wunderground v.1.15,2013-01-02 01:50:00,
2013-01-01 21:00:00,33.7,28.8,29.98,WSW,248,2.0,3.0,82,0.00,,,0.10,Wunderground v.1.15,2013-01-02 02:00:00,
2013-01-01 21:05:00,33.7,28.8,29.98,NE,56,1.0,3.0,82,0.00,,,0.10,Wunderground v.1.15,2013-01-02 02:05:00,
2013-01-01 21:15:00,33.5,29.2,29.98,East,101,1.0,1.0,84,0.00,,,0.10,Wunderground v.1.15,2013-01-02 02:15:00,
2013-01-01 21:25:00,33.4,28.2,29.99,SSW,213,2.0,4.0,81,0.00,,,0.10,Wunderground v.1.15,2013-01-02 02:25:00,
2013-01-01 21:35:00,33.5,28.6,29.99,NE,42,1.0,2.0,82,0.00,,,0.10,Wunderground v.1.15,2013-01-02 02:35:00,
2013-01-01 21:40:00,33.4,28.8,29.99,NE,41,0.0,0.0,83,0.00,,,0.10,Wunderground v.1.15,2013-01-02 02:40:00,
2013-01-01 21:50:00,33.3,28.4,29.99,SW,214,0.0,6.0,82,0.00,,,0.10,Wunderground v.1.15,2013-01-02 02:50:00,
2013-01-01 22:00:00,33.4,28.2,29.98,SE,145,1.0,1.0,81,0.00,,,0.10,Wunderground v.1.15,2013-01-02 03:00:00,
2013-01-01 22:05:00,33.4,28.5,29.98,NE,49,1.0,1.0,82,0.00,,,0.10,Wunderground v.1.15,2013-01-02 03:05:00,
2013-01-01 22:15:00,33.3,27.5,29.99,SW,233,2.0,2.0,79,0.00,,,0.10,Wunderground v.1.15,2013-01-02 03:15:00,
2013-01-01 22:25:00,33.3,28.1,29.98,East,100,1.0,1.0,81,0.00,,,0.10,Wunderground v.1.15,2013-01-02 03:25:00,
2013-01-01 22:35:00,33.0,28.1,29.99,East,89,1.0,3.0,82,0.00,,,0.10,Wunderground v.1.15,2013-01-02 03:35:00,
2013-01-01 22:45:00,32.8,27.9,29.99,NE,54,1.0,1.0,82,0.00,,,0.10,Wunderground v.1.15,2013-01-02 03:45:00,
2013-01-01 22:55:00,32.8,27.0,29.99,NE,45,2.0,3.0,79,0.00,,,0.10,Wunderground v.1.15,2013-01-02 03:55:00,
2013-01-01 23:05:00,32.8,27.3,29.99,ENE,73,1.0,1.0,80,0.00,,,0.10,Wunderground v.1.15,2013-01-02 04:05:00,
2013-01-01 23:15:00,32.8,27.0,29.99,ESE,104,3.0,3.0,79,0.00,,,0.10,Wunderground v.1.15,2013-01-02 04:15:00,
2013-01-01 23:25:00,32.7,26.0,29.99,SSE,168,2.0,3.0,76,0.00,,,0.10,Wunderground v.1.15,2013-01-02 04:25:00,
2013-01-01 23:30:00,32.8,26.4,29.99,SSE,168,1.0,1.0,77,0.00,,,0.10,Wunderground v.1.15,2013-01-02 04:30:00,
2013-01-01 23:40:00,32.7,26.6,29.99,NNE,16,1.0,1.0,78,0.00,,,0.10,Wunderground v.1.15,2013-01-02 04:40:00,
2013-01-01 23:50:00,32.6,26.2,29.99,NE,54,1.0,1.0,77,0.00,,,0.10,Wunderground v.1.15,2013-01-02 04:50:00,